Location: Boiro
(42.6475°N, 8.8834°W)
Time: 02:24:01
(UTC+01:00)

Explorer 7 - Pass Details

Date: 01 December 2021
Orbit: 483 x 674 km, 50.3° (Epoch: 23 January)

Event Time Altitude Azimuth Distance (km) Brightness Sun altitude
Rises 12:41:57 0° 300° (WNW) 2,629 9.9 24.7°
Reaches altitude 10° 12:44:18 10° 309° (NW) 1,716 9.0 24.8°
Maximum altitude 12:47:56 38° 19° (NNE) 758 7.4 24.9°
Drops below altitude 10° 12:51:28 10° 89° (E) 1,665 9.5 25.0°
Sets 12:53:43 0° 98° (E) 2,539 10.4 25.1°
